Flag for USA

Past Weather in Palm Coast, Florida, USA — Yesterday and Last 2 Weeks

Now
61 °F

Cool.


Feels Like: 61 °F
Forecast: 79 / 62 °F
Wind: No wind

Location: Palm Coast - MADIS Station
Current Time: Oct 1, 2020 at 9:48:03 am
Latest Report: Oct 1, 2020 at 8:31 am
Visibility: N/A
PressureN/A
Humidity: 99%
Dew Point: 61 °F
Location of Palm CoastLocation

Past Weather in Palm Coast — Graph

°F

Palm Coast Temperature Yesterday

Maximum temperature yesterday: 73 °F (at 1:30 pm)
Minimum temperature yesterday: 59 °F (at 11:00 pm)
Average temperature yesterday: 65 °F

High & Low Weather Summary for the Past Weeks

 TemperatureHumidityPressure
High92 °F (Sep 17, 1:16 pm)100% (Sep 16, 8:01 am)30.15 "Hg (Sep 16, 8:01 am)
Low56 °F (Oct 1, 6:46 am)59% (Sep 30, 4:01 pm)29.76 "Hg (Sep 29, 4:30 pm)
Average77 °F88%29.97 "Hg
* Reported Sep 16 8:01 am — Oct 1 8:31 am, Palm Coast. Weather by CustomWeather, © 2020

Note: Actual official high and low records may vary slightly from our data, if they occured in-between our weather recording intervals... More about our weather records

Palm Coast Weather History for the Previous 24 Hours

Scroll right to see more
 ConditionsComfort  
Time TempWeatherWind HumidityBarometerVisibility
8:31 am
Thu, Oct 1
61 °FCool.No wind99%N/AN/A
8:15 am59 °FCool.No wind99%N/AN/A
7:45 am56 °FCool.No wind99%N/AN/A
7:01 am56 °FCool.No wind99%N/AN/A
6:46 am56 °FCool.No wind99%N/AN/A
6:17 am57 °FCool.No wind99%N/AN/A
5:31 am57 °FCool.No wind99%N/AN/A
5:16 am57 °FCool.No wind99%N/AN/A
5:00 am57 °FCool.No wind99%30.01 "HgN/A
4:33 am57 °FCool.No wind99%30.02 "HgN/A
4:17 am57 °FCool.No wind99%30.03 "HgN/A
4:00 am57 °FCool.No wind99%30.03 "HgN/A
3:30 am57 °FCool.No wind98%30.03 "HgN/A
2:47 am57 °FCool.No wind98%30.04 "HgN/A
2:31 am58 °FCool.No wind98%30.05 "HgN/A
2:16 am58 °FCool.No wind98%30.05 "HgN/A
1:45 am58 °FCool.No wind98%30.05 "HgN/A
1:32 am58 °FCool.No wind98%30.05 "HgN/A
1:01 am58 °FCool.No wind98%N/AN/A
12:46 am58 °FCool.No wind98%30.05 "HgN/A
12:30 am59 °FCool.No wind97%30.05 "HgN/A
11:45 pm
Wed, Sep 30
59 °FCool.No wind96%30.05 "HgN/A
11:30 pm59 °FCool.No wind97%N/AN/A
11:15 pm59 °FCool.No wind96%30.06 "HgN/A
11:00 pm59 °FCool.No wind96%30.06 "HgN/A
10:17 pm60 °FCool.No wind95%N/AN/A
9:46 pm61 °FCool.No wind94%N/AN/A
8:16 pm64 °FCool.No wind85%N/AN/A
7:46 pm66 °FCool.No wind79%N/AN/A
7:30 pm68 °FCool.No wind77%30.02 "HgN/A
7:02 pm70 °FCool.No wind70%N/AN/A
6:30 pm72 °FMild.No wind65%N/AN/A
5:16 pm73 °FMild.No wind62%N/AN/A
4:30 pm73 °FMild.3 mph61%30.00 "HgN/A
4:01 pm73 °FMild.2 mph59%N/AN/A
3:15 pm73 °FMild.4 mph62%30.02 "HgN/A
1:46 pm73 °FMild.3 mph60%30.05 "HgN/A
1:30 pm73 °FMild.3 mph63%30.05 "HgN/A
1:15 pm72 °FMild.3 mph66%30.06 "HgN/A
12:46 pm72 °FMild.2 mph72%30.07 "HgN/A
12:16 pm70 °FCool.2 mph75%N/AN/A
11:45 am70 °FCool.3 mph73%N/AN/A
11:01 am69 °FCool.2 mph76%N/AN/A
10:30 am68 °FCool.3 mph78%N/AN/A
10:15 am67 °FCool.2 mph78%N/AN/A
10:02 am67 °FCool.3 mph77%30.06 "HgN/A
Weather by CustomWeather, © 2020

See weather overview